Starlink 30984

operational
NORAD ID: 58480 Int'l Des: 2023-186 Owner: SPXS Country: US Constellation: starlink
LEOCIRCULAR

Starlink 30984について

説明を読み込み中...

リアルタイム位置

3D地球を読み込み中...

次回通過

高度履歴

Altitude vs Time

uPlot chart will show altitude changes over time

軌道要素

1 58480U 23186H 25307.95881213 .00000711 00000-0 67662-4 0 9999
2 58480 43.0042 30.1744 0001108 273.2880 86.7835 15.02537107106947
Epoch: Nov 3, 2025 • Age: 14 hours

現在のステータス

高度 570.6 km
速度 7.58 km/s
衛星直下点 -40.31°S, 34.46°E
打ち上げ日 Dec 3, 2023
運用期間 1.9 years
タイプ internet

技術仕様

分類 Payload
質量 730.00 kg
乾燥質量 700.00 kg
総質量 730.00 kg
長さ 0.30 m
直径 4.10 m
スパン 29.00 m
形状 Box + pan
製造者 SPXS
バスタイプ Starlink V2M
フェーズステータス In Orbit
所有者/国 SPXS/US

大規模コンステレーション

Loading constellations...